SCP
0 0 0 0 0 0 0 0 0 0 0 0 0 0 0 0 0 0 0 0 0 0 0 0 0 0 0 0 0 0 0 0 0 0 0 0 0 0 0 0 0 0 0
0 0 0 0 0 0 0 0 0 0 0 0 0 0 0 0 0 0 0 0 0 0 0 0 0 0 0 0 0 0 0 0 0 0 0 0 0 0 0 0 0 0 0
0 0 0 0 0 0 0 0 0 0 0 0 0 0 0 0 0 0 0 0 0 0 0 0 0 0 0 0 0 0 0 0 0 0 0 0 0 0 0 0 0 0 0
0 0 0 0 0 0 0 0 0 0 0 0 0 0 0 0 0 0 0 0 0 0 0 0 0 0 0 0 0 0 0 0 0 0 0 0 0 0 0 0 0 0 0
0 0 0 0 0 0 0 0 0 0 0 0 0 0 0 0 0 0 0 0 0 0 0 0 0 0 0 0 0 0 0 0 0 0 0 0 0 0 0 0 0 0 0
0 0 0 0 0 0 0 0 0 0 0 0 0 0 0 0 0 0 0 0 0 0 0 0 0 0 0 0 0 0 0 0 0 0 0 0 0 0 0 0 0 0 0
0 0 0 0 0 0 0 0 0 0 0 0 0 0 0 0 0 0 0 0 0 0 0 0 0 0 0 0 0 0 0 0 0 0 0 0 0 0 0 0 0 0 0
0 0 0 0 0 0 0 0 0 0 0 0 0 0 0 0 0 0 0 0 0 0 0 0 0 0 0 0 0 0 0 0 0 0 0 0 0 0 0 0 0 0 0
0 0 0 0 0 0 0 0 0 0 0 0 0 0 0 0 0 0 0 0 0 0 0 0 0 0 0 0 0 0 0 0 0 0 0 0 0 0 0 0 0 0 0
0 0 0 0 0 0 0 0 0 0 0 0 0 0 0 0 0 0 0 0 0 0 0 0 0 0 0 0 0 0 0 0 0 0 0 0 0 0 0 0 0 0 0
0 0 0 0 0 0 0 0 0 0 0 0 0 0 0 0 0 0 0 0 0 0 0 0 0 0 0 0 0 0 0 0 0 0 0 0 0 0 0 0 0 0 0
0 0 0 0 0 0 0 0 0 0 0 0 0 0 0 0 0 0 0 0 0 0 0 0 0 0 0 0 0 0 0 0 0 0 0 0 0 0 0 0 0 0 0
0 0 0 0 0 0 0 0 0 0 0 0 0 0 0 0 0 0 0 0 0 0 0 0 0 0 0 0 0 0 0 0 0 0 0 0 0 0 0 0 0 0 0
0 0 0 0 0 0 0 0 0 0 0 0 0 0 0 0 0 0 0 0 0 0 0 0 0 0 0 0 0 0 0 0 0 0 0 0 0 0 0 0 0 0 0
0 0 0 0 0 0 0 0 0 0 0 0 0 0 0 0 0 0 0 0 0 0 0 0 0 0 0 0 0 0 0 0 0 0 0 0 0 0 0 0 0 0 0
0 0 0 0 0 0 0 0 0 0 0 0 0 0 0 0 0 0 0 0 0 0 0 0 0 0 0 0 0 0 0 0 0 0 0 0 0 0 0 0 0 0 0
0 0 0 0 0 0 0 0 0 0 0 0 0 0 0 0 0 0 0 0 0 0 0 0 0 0 0 0 0 0 0 0 0 0 0 0 0 0 0 0 0 0 0
0 0 0 0 0 0 0 0 0 0 0 0 0 0 0 0 0 0 0 0 0 0 0 0 0 0 0 0 0 0 0 0 0 0 0 0 0 0 0 0 0 0 0
0 0 0 0 0 0 0 0 0 0 0 0 0 0 0 0 0 0 0 0 0 0 0 0 0 0 0 0 0 0 0 0 0 0 0 0 0 0 0 0 0 0 0
0 0 0 0 0 0 0 0 0 0 0 0 0 0 0 0 0 0 0 0 0 0 0 0 0 0 0 0 0 0 0 0 0 0 0 0 0 0 0 0 0 0 0
0 0 0 0 0 0 0 0 0 0 0 0 0 0 0 0 0 0 0 0 0 0 0 0 0 0 0 0 0 0 0 0 0 0 0 0 0 0 0 0 0 0 0
0 0 0 0 0 0 0 0 0 0 0 0 0 0 0 0 0 0 0 0 0 0 0 0 0 0 0 0 0 0 0 0 0 0 0 0 0 0 0 0 0 0 0
0 0 0 0 0 0 0 0 0 0 0 0 0 0 0 0 0 0 0 0 0 0 0 0 0 0 0 0 0 0 0 0 0 0 0 0 0 0 0 0 0 0 0
-0 0 0 0 0 0 0 0 0 0 0 0 0 0 0 0 0 0 0 0 0 0 0 0 0 0 0 0 0 0 0 0 0 0 0 0 0 0 0 0 0 0 0
0 0 0 0 0 0 0 0 0 0 0 0 0 0 0 0 0 0 0 0 0 0 0 0 0 0 0 0 0 0 0 0 0 0 0 0 0 0 0 0 0 0 0
0 0 0 0 0 0 0 0 0 0 0 0 0 0 0 0 0 0 0 0 0 0 0 0 0 0 0 0 0 0 0 0 0 0 0 0 0 0 0 0 0 0 0
Wind_Speed
15 11 13 13 13 13 13 13 11 10 7 4 3 2 3 3 3 3 5 5 5 5 4 4 4 3 3 4 5 4 6 5 4 6 9 9 8 8 7 7 9 12 14
12 12 13 14 16 17 16 15 14 12 10 6 4 3 3 3 3 3 3 5 5 5 4 4 4 4 3 5 5 5 4 5 4 5 10 9 9 7 9 7 9 11 10
18 15 16 17 17 18 19 16 15 13 11 8 4 3 2 1 2 3 3 4 4 4 4 5 4 4 4 4 5 5 5 6 5 3 4 7 9 14 10 10 10 9 10
16 16 17 18 20 20 16 15 15 13 11 10 7 7 5 5 5 3 3 4 4 5 5 5 5 5 4 5 6 6 5 5 7 5 4 6 8 10 13 11 8 10 12
16 17 19 20 19 16 15 14 14 13 12 11 10 8 6 5 3 3 4 4 4 5 5 5 5 5 5 6 6 6 6 5 6 6 6 7 7 7 9 15 16 12 9
15 15 13 13 13 12 13 13 14 14 13 12 11 10 9 7 6 5 5 4 3 4 5 5 5 5 5 6 7 7 7 7 7 7 6 7 7 8 8 12 15 15 13
12 12 12 14 15 16 16 15 16 14 13 13 12 11 10 9 9 7 6 5 4 4 6 6 5 5 6 7 7 7 7 7 8 7 7 7 8 8 9 11 13 16 14
10 12 14 15 16 18 17 17 18 15 14 14 12 10 9 7 6 7 6 6 5 5 6 6 6 7 7 8 6 6 7 7 7 10 9 7 8 7 8 9 11 14 13
10 12 11 13 15 17 19 19 18 15 15 14 12 10 9 8 8 7 6 5 5 5 6 6 7 7 7 8 7 6 8 8 8 9 10 9 8 8 7 8 8 10 14
9 10 10 13 14 15 15 14 16 16 13 13 12 10 9 9 8 6 7 7 7 6 6 6 7 7 8 8 7 7 8 9 9 9 10 10 9 8 8 8 8 9 11
12 12 11 11 10 10 12 14 14 13 12 13 11 9 9 8 8 7 7 7 6 6 7 7 7 7 8 8 7 9 9 10 11 11 11 13 11 9 9 8 8 9 10
10 9 9 9 10 13 13 15 15 14 14 12 11 10 9 8 8 8 7 7 7 6 7 7 7 8 8 8 8 10 11 10 12 13 13 14 11 12 10 9 10 10 10
9 7 7 10 13 14 14 15 15 15 13 12 11 10 9 9 9 8 7 7 6 6 6 6 7 8 9 9 9 10 11 12 13 13 13 14 13 13 10 11 10 10 10
9 8 9 11 12 13 14 15 15 14 13 13 12 12 12 11 9 8 7 7 6 6 6 7 8 8 9 9 10 10 12 12 13 12 12 12 12 12 12 11 11 10 10
9 10 11 11 11 12 14 14 14 14 14 14 13 13 11 9 8 8 7 6 6 7 6 7 8 8 8 8 10 11 11 10 10 10 10 11 15 18 14 11 9 9 7
11 11 11 11 13 15 16 15 15 14 13 14 14 11 10 10 9 8 7 7 6 6 6 7 8 9 8 16 20 16 7 7 8 8 8 10 12 16 21 23 22 17 10
11 11 12 13 15 16 16 17 16 13 14 14 13 12 11 11 10 9 7 8 7 6 6 7 7 8 11 18 19 19 9 6 7 7 8 9 10 16 10 16 19 15 18
11 11 9 11 12 12 12 12 11 13 15 14 13 12 12 11 9 8 9 8 6 6 6 7 7 7 10 16 17 18 6 6 7 7 8 9 10 13 15 9 7 8 9
10 10 9 9 8 10 11 11 12 13 14 15 15 14 13 12 11 11 10 8 6 6 6 6 6 7 9 14 16 15 3 5 7 7 7 9 10 19 21 8 6 8 8
8 9 7 6 8 8 10 13 14 15 18 18 16 14 13 13 12 12 10 7 6 7 6 6 6 6 7 12 14 14 3 5 5 5 7 14 16 20 19 6 6 9 8
11 9 8 8 9 8 11 14 15 19 18 14 13 13 13 13 12 10 8 7 7 5 5 5 5 5 7 10 13 14 4 4 5 5 5 8 19 20 19 15 7 13 11
11 10 8 10 7 9 13 15 18 15 11 12 13 13 13 11 10 10 8 7 7 6 5 5 5 4 5 7 10 13 12 10 4 5 6 8 18 18 18 13 16 19 15
11 9 9 10 7 10 14 17 15 11 12 14 14 13 13 12 10 10 9 7 6 5 5 4 4 4 4 5 12 12 13 14 6 5 12 15 16 15 11 15 19 14 8
10 8 8 10 11 10 14 16 10 12 15 15 14 13 13 12 11 9 8 7 7 6 5 5 5 4 3 4 5 5 6 9 7 5 8 12 13 11 12 12 10 7 8
9 7 8 11 13 10 13 13 11 14 15 14 13 13 13 12 11 10 9 9 8 8 7 6 5 4 4 7 9 6 3 3 4 3 3 4 5 6 6 7 7 6 7
10 9 9 11 12 9 11 12 12 15 15 14 13 11 11 10 10 9 8 13 12 14 15 12 9 7 9 10 10 10 9 9 9 4 3 4 5 6 8 8 8 8 8
Wind_Direction
222 206 199 189 182 182 182 181 178 176 164 157 166 180 213 226 243 239 230 228 232 242 246 266 271 272 272 277 287 292 297 294 295 304 308 298 279 275 281 279 284 288 288
221 211 199 191 190 189 188 186 185 180 178 173 165 171 178 208 222 234 234 232 237 245 257 254 260 267 273 284 290 293 287 293 311 305 315 313 311 301 308 286 289 290 289
222 213 204 199 197 196 192 190 188 183 181 170 151 150 146 234 242 233 234 240 245 251 256 260 260 263 258 269 280 282 278 293 297 268 280 302 308 315 304 300 294 292 293
224 216 209 204 203 202 193 190 184 182 179 171 169 170 184 202 216 214 225 247 251 254 255 259 261 261 257 263 275 290 276 282 296 293 252 256 279 299 307 307 296 295 297
222 219 212 209 206 197 190 187 182 183 179 178 178 178 194 205 214 224 241 249 252 252 256 258 259 258 256 261 267 276 272 267 275 286 289 287 283 270 288 302 308 306 299
223 223 216 204 198 188 186 184 184 186 182 182 182 185 194 201 212 225 236 243 245 251 255 258 253 253 256 260 264 263 266 265 266 273 276 283 287 293 290 294 301 304 303
218 216 206 199 195 188 189 187 187 189 186 186 189 192 195 197 208 217 225 232 238 243 251 256 252 254 254 259 261 261 263 264 265 268 272 272 272 277 283 289 296 298 299
217 215 210 202 196 192 189 189 192 191 188 191 195 194 193 195 206 212 213 221 228 238 245 247 248 252 256 266 263 264 264 266 263 273 272 271 272 269 271 278 290 297 299
226 220 211 201 196 193 193 192 192 191 191 193 192 194 195 197 205 211 215 222 230 242 244 244 249 254 257 260 262 262 264 266 267 269 271 269 271 268 267 268 271 283 296
240 230 215 205 200 197 193 191 192 193 190 190 192 197 197 200 203 206 217 225 234 241 249 252 253 257 260 262 262 263 265 267 270 270 269 270 270 268 268 267 269 269 277
234 229 219 207 195 187 188 192 194 192 191 192 193 193 193 196 200 209 219 225 233 238 244 249 255 259 262 262 261 264 269 269 273 275 273 273 272 271 270 269 269 271 272
239 230 214 193 190 193 194 196 196 196 196 192 190 195 192 193 202 214 221 224 233 238 242 250 257 262 266 262 261 268 276 271 275 277 276 276 276 272 271 269 269 272 271
252 234 207 200 201 200 199 199 199 199 193 187 189 193 195 198 207 214 219 224 232 241 247 251 258 263 266 266 265 265 270 271 272 274 275 275 275 273 270 269 270 270 273
250 234 222 215 210 205 202 201 201 196 190 189 191 197 201 202 206 210 216 222 229 241 249 254 259 264 267 268 269 269 269 270 272 274 273 273 271 270 268 269 266 269 272
251 237 230 223 214 210 207 205 202 196 191 191 196 203 200 196 199 206 214 222 230 243 249 259 267 270 271 268 265 262 266 270 276 276 274 276 283 286 285 281 275 275 273
256 247 236 226 218 214 210 205 203 196 189 193 200 197 190 194 200 206 212 223 233 243 252 259 267 273 277 289 295 297 279 278 282 284 286 287 291 292 298 302 301 301 301
264 256 240 229 224 217 208 205 200 188 189 196 196 191 191 198 203 206 211 223 233 242 253 259 263 268 278 293 300 304 303 286 283 283 289 297 295 303 290 290 295 300 301
266 263 250 238 229 217 206 199 187 187 193 196 194 191 190 198 198 202 216 225 227 236 248 257 262 268 280 298 305 309 310 288 284 280 282 285 286 290 294 282 273 270 279
265 265 255 242 229 211 193 181 187 190 195 199 197 193 191 193 196 207 218 220 222 235 241 250 259 267 282 300 305 312 287 287 287 284 288 297 288 298 315 321 296 292 288
275 272 269 248 231 209 177 183 193 196 203 202 198 191 190 193 200 208 212 212 217 232 241 250 253 262 272 295 307 314 286 290 291 288 292 309 313 318 332 334 308 304 301
280 276 263 248 235 194 178 196 202 209 207 195 188 186 189 195 199 202 206 209 217 226 235 249 257 261 272 295 307 312 306 293 299 304 305 306 319 331 338 339 318 318 335
282 274 261 256 236 187 189 206 215 212 188 182 185 188 189 191 193 197 203 206 210 220 234 243 259 252 267 289 299 312 320 324 302 301 301 306 325 337 339 336 331 339 342
279 274 259 261 242 202 201 217 220 187 177 182 188 188 188 191 190 192 198 201 204 212 224 229 248 259 257 279 300 310 317 322 320 302 319 329 335 338 334 330 340 343 330
282 279 268 260 254 221 215 224 207 178 180 187 190 187 187 189 192 194 196 199 201 205 214 222 235 247 259 270 277 274 288 305 314 315 323 333 335 335 330 333 332 327 320
286 278 263 260 258 234 222 218 195 181 187 191 191 189 189 188 191 197 200 200 203 198 200 209 215 223 245 263 282 293 276 282 296 328 324 325 328 330 327 325 324 323 324
290 288 276 267 266 245 229 213 195 188 188 191 192 190 187 187 188 190 200 217 212 221 224 219 213 224 241 273 294 306 315 324 334 352 325 324 325 325 325 325 324 325 327